Regional Weather Roundup
Issued by NWS Sterling, VA

Home | Current Version | Previous Version | Graphics & Text | Print | Product List | Glossary On
Versions: 1 2 3 4 5 6 7 8 9 10 11 12 13 14 15 16 17 18 19 20 21 22 23 24 25 26 27 28 29 30 31 32 33 34 35 36 37 38 39 40 41 42 43 44 45 46 47 48 49 50
000
ASUS41 KLWX 030110
RWRLWX

REGIONAL WEATHER ROUNDUP
NATIONAL WEATHER SERVICE BALTIMORE MD/WASHINGTON DC
900 PM EDT SAT MAY 02 2015

Note: "FAIR" indicates few or no clouds below 12,000 feet
with no significant weather and/or obstructions to visibility.
 TC=TEMPERATURE CELSIUS

 * =Non NWS site. Station does not report precipitation (e.g. rain,
    snow, etc.), thunder, or fog.

DCZ001-MDZ009-015-VAZ040>042-051-053>054-030200-
WASHINGTON METRO

CITY           SKY/WX    TMP DP  RH WIND       PRES   REMARKS
WASHINGTON NAT PTCLDY    67  47  48 S5        30.00R
DULLES         PTCLDY    59  44  57 CALM      30.00R
ANDREWS AFB    CLEAR     61  46  58 S5        29.99R
FT BELVOIR     CLEAR     58  48  69 CALM      30.00R
QUANTICO       CLEAR     62  47  57 W5        30.01R
COLLEGE PARK*  CLEAR     61  45  55 CALM      29.99R
LEESBURG*      CLEAR     59  46  63 W7        30.01R
MANASSAS*      CLEAR     57  50  77 CALM      30.00R
GAITHERSBURG*  CLEAR     59  46  63 CALM      30.03S

$$

MDZ006>007-011-014-030200-
BALTIMORE METRO

CITY           SKY/WX    TMP DP  RH WIND       PRES   REMARKS
BWI AIRPORT    PTCLDY    63  44  50 S5        29.98R
MD SCIENCE CTR   N/A     69  40  34 MISG      29.99R
MARTIN STATE   PTCLDY    64  50  59 S6        29.99R
ANNAPOLIS      CLEAR     62  48  60 CALM      29.99R
FORT MEADE*    CLEAR     55  45  67 CALM      30.01R

$$

MDZ012-015-019>023-030200-
MARYLAND EASTERN SHORE

CITY           SKY/WX    TMP DP  RH WIND       PRES   REMARKS
OCEAN CITY     CLEAR     50  43  77 S5        30.04R
SALISBURY      CLEAR     53  45  74 SE7       30.03R
BAY BRIDGE AP*   N/A    N/A N/A N/A S5        29.99S
CAMBRIDGE*     CLEAR     61  48  63 SW6       30.00R

$$

MDZ017>025-030200-
SOUTHERN MARYLAND

CITY           SKY/WX    TMP DP  RH WIND       PRES   REMARKS
PATUXENT RIVER CLEAR     59  48  67 S5        30.01R
ST INIGOES     CLEAR     57  51  80 CALM      30.01R
LEONARDTOWN*   CLEAR     61  45  55 CALM      30.03R

$$

MDZ003>005-030200-
NORTH CENTRAL MARYLAND

CITY           SKY/WX    TMP DP  RH WIND       PRES   REMARKS
FREDERICK*     CLEAR     55  43  62 SE3       30.01R
HAGERSTOWN APT CLEAR     68  37  32 SW5       29.99R
WESTMINSTER*   CLEAR     64  43  45 W6        29.99R

$$

MDZ501>502-030200-
WESTERN MARYLAND

CITY           SKY/WX    TMP DP  RH WIND       PRES   REMARKS
OAKLAND*       CLEAR     55  36  47 W5        30.08R
CUMBERLAND*    CLEAR     70  32  24 CALM      30.05R

$$

VAZ025>031-030200-
SHENANDOAH VALLEY

CITY           SKY/WX    TMP DP  RH WIND       PRES   REMARKS
WINCHESTER*    CLOUDY    64  37  36 CALM      30.01R
FRONT ROYAL*   FAIR      59  43  55 S3        30.01R
LURAY*         MOCLDY    59  50  72 CALM      30.03R
NEW MARKET*    MOCLDY    58  45  61 CALM      30.02R
STAUNTON*      PTCLDY    56  45  65 CALM      30.07R
WAYNESBORO*    CLOUDY    58  43  56 CALM      30.06R

$$

WVZ021-048>050-054>055-030200-
EASTERN WEST VIRGINIA PANHANDLE

CITY           SKY/WX    TMP DP  RH WIND       PRES   REMARKS
MARTINSBURG    CLEAR     59  44  57 CALM      30.00R
PETERSBURG*    PTCLDY    59  39  46 NW3       30.05R

$$

VAZ036>039-050-030200-
CENTRAL FOOTHILLS

CITY           SKY/WX    TMP DP  RH WIND       PRES   REMARKS
CHARLOTTESVILL PTCLDY    62  40  44 SW5       30.03R
CULPEPER*      NOT AVBL
ORANGE*        CLEAR     59  46  63 CALM      30.04R
GORDONSVILLE*  FAIR      55  47  74 CALM      30.02S
WARRENTON*     FAIR      54  48  81 CALM      30.01R

$$

VAZ055>057-030200-
NORTH AND CENTRAL PIEDMONT

CITY           SKY/WX    TMP DP  RH WIND       PRES   REMARKS
FREDERICKSBRG* CLEAR     62  48  61 CALM      30.01R
STAFFORD*      CLEAR     56  44  64 CALM      30.05R

$$

NCZ024-NYZ072-PAZ021-071-VAZ022-071-030200-
OTHER REGIONAL OBSERVATIONS

CITY           SKY/WX    TMP DP  RH WIND       PRES   REMARKS
NEW YORK CITY  PTCLDY    51  37  58 VRB6      30.04R
PHILADELPHIA   PTCLDY    64  46  52 SW7       29.99R
PITTSBURGH     PTCLDY    66  38  35 W3        30.03R
ROANOKE        MOCLDY    65  41  41 E5        30.08R
RICHMOND       PTCLDY    61  50  67 CALM      30.03R
RALEIGH        PTCLDY    58  52  80 CALM      30.07R

$$

ANZ530>537-030200-
MARINE OBSERVATIONS

STATION/POSITION TIME  TEMP    WIND        PRES
                       AIR SEA DIR/SP/G
                 (UTC) (F)     (DEG/KT/KT) (MB)
THOMAS PT LIGHT  0100   64 58  210/  9/ 10 1016.3R
BALT KEY BRIDGE  0000   69     180/  3/  5 1014.6R
COVE POINT       0000   66     200/  4/  5 1016.2R
LEWISETTA        0000   65 61              1015.7R
SOLOMONS ISLAND  0000      61                N/A
PINEY POINT      0000          200/  4/  5   N/A

$$




USA.gov is the U.S. government's official web portal to all federal, state and local government web resources and services.